EW1152 Weather Reports


time (UTC)temp
C
wind
direction
speed
KPH
gust
KPH
rain 1hr
cm
rain 24hr
cm
rain mn
cm
humidity
%
barometer
mb
20260507212214 17 300 8.0 25.7 0.00 0.43 0.38 34 1005.4
20260507211934 17 298 8.0 19.3 0.00 0.43 0.38 35 1005.4
20260507211202 17 223 11.3 27.4 0.00 0.43 0.38 35 1005.4
20260507210657 17 318 9.7 27.4 0.00 0.46 0.38 35 1005.3
20260507210150 17 340 8.0 22.5 0.00 0.46 0.38 37 1005.3
20260507205644 17 317 8.0 22.5 0.00 0.46 0.38 36 1005.2
20260507205618 17 188 9.7 29.0 0.00 0.46 0.38 36 1005.1
20260507205130 17 290 11.3 29.0 0.00 0.46 0.38 34 1005.2
20260507204134 17 341 9.7 25.7 0.00 0.46 0.38 35 1005.2
20260507203856 17 316 9.7 20.9 0.00 0.46 0.38 36 1005.1
20260507203131 17 302 9.7 24.1 0.00 0.48 0.38 35 1005.3
20260507202631 17 292 9.7 24.1 0.00 0.48 0.38 36 1005.4
20260507202130 17 263 9.7 27.4 0.00 0.48 0.38 35 1005.2
20260507201628 17 349 8.0 22.5 0.00 0.48 0.38 36 1005.1
20260507201129 17 315 8.0 22.5 0.00 0.48 0.38 37 1005.3
20260507200628 17 344 8.0 25.7 0.00 0.48 0.38 35 1005.3
20260507200127 17 265 8.0 25.7 0.00 0.48 0.38 34 1005.4
20260507195627 17 327 6.4 19.3 0.00 0.48 0.38 35 1005.4
20260507195129 17 288 6.4 19.3 0.00 0.48 0.38 35 1005.2
20260507194625 17 238 6.4 20.9 0.00 0.48 0.38 36 1005.4
20260507194125 17 325 8.0 20.9 0.00 0.48 0.38 38 1005.4
20260507193624 17 335 6.4 17.7 0.00 0.51 0.38 38 1005.5
20260507193121 17 28 8.0 19.3 0.00 0.51 0.38 37 1005.5
20260507192622 17 33 11.3 25.7 0.00 0.51 0.38 37 1005.5
20260507192123 17 327 9.7 25.7 0.00 0.51 0.38 38 1005.5
20260507191621 17 315 6.4 19.3 0.00 0.51 0.38 39 1005.6
20260507191122 17 306 6.4 19.3 0.00 0.51 0.38 40 1005.6
20260507190618 17 309 6.4 14.5 0.00 0.53 0.38 38 1005.4
20260507190118 17 232 8.0 20.9 0.00 0.53 0.38 37 1005.6
20260507185618 17 277 8.0 20.9 0.00 0.53 0.38 40 1005.8
20260507185118 17 253 8.0 24.1 0.00 0.53 0.38 39 1005.7
20260507184618 17 314 8.0 24.1 0.00 0.53 0.38 40 1005.7
20260507184118 17 325 8.0 20.9 0.00 0.53 0.38 40 1005.7
20260507183839 17 248 6.4 20.9 0.00 0.53 0.38 41 1005.7
20260507183118 17 317 4.8 16.1 0.00 0.53 0.38 40 1005.8
20260507182617 16 333 6.4 16.1 0.00 0.53 0.38 41 1005.9
20260507182117 16 265 6.4 17.7 0.00 0.53 0.38 40 1006.0
20260507181621 16 348 8.0 24.1 0.00 0.53 0.38 40 1006.0
20260507181120 16 294 9.7 24.1 0.00 0.53 0.38 39 1005.9
20260507180841 16 291 8.0 22.5 0.00 0.53 0.38 42 1006.0
20260507180116 16 312 6.4 16.1 0.00 0.53 0.38 41 1006.0
20260507175617 16 254 9.7 24.1 0.03 0.53 0.38 41 1006.1
20260507175117 16 236 9.7 24.1 0.03 0.53 0.38 41 1006.2
20260507174615 16 24 4.8 24.1 0.03 0.53 0.38 42 1006.3
20260507174117 16 215 3.2 9.7 0.03 0.53 0.38 40 1006.2
20260507173615 16 280 4.8 16.1 0.03 0.53 0.38 42 1006.1
20260507173116 16 355 4.8 16.1 0.03 0.53 0.38 41 1006.1
20260507172606 16 236 6.4 24.1 0.03 0.53 0.38 40 1006.3
20260507172107 16 213 9.7 24.1 0.03 0.53 0.38 41 1006.2
20260507171603 16 273 9.7 22.5 0.03 0.53 0.38 41 1006.3
20260507171102 15 323 8.0 22.5 0.03 0.53 0.38 41 1006.5
20260507170601 15 265 9.7 22.5 0.03 0.53 0.38 41 1006.5
20260507165601 16 240 9.7 25.7 0.00 0.51 0.38 41 1006.7
20260507165100 16 327 8.0 22.5 0.00 0.51 0.36 42 1006.8
20260507164559 16 306 8.0 22.5 0.00 0.51 0.36 44 1006.7
20260507164059 16 5 9.7 22.5 0.00 0.51 0.36 45 1006.8
20260507163559 16 254 9.7 27.4 0.00 0.51 0.36 44 1006.9
20260507163058 16 344 9.7 27.4 0.00 0.51 0.36 44 1006.9
20260507162556 16 5 8.0 22.5 0.00 0.51 0.36 45 1006.8
20260507162056 16 344 6.4 22.5 0.00 0.51 0.36 45 1006.9
20260507161556 16 355 6.4 20.9 0.00 0.51 0.36 44 1007.1
20260507161054 16 327 8.0 19.3 0.00 0.51 0.36 46 1007.0
20260507160545 15 296 8.0 17.7 0.00 0.51 0.36 46 1007.1
20260507160044 15 265 8.0 19.3 0.00 0.51 0.36 47 1007.1
20260507155544 16 317 8.0 19.3 0.00 0.51 0.36 47 1007.2
20260507155305 16 136 9.7 24.1 0.00 0.51 0.36 48 1007.1
20260507154532 16 314 9.7 24.1 0.00 0.51 0.36 49 1007.2
20260507154026 15 241 8.0 19.3 0.00 0.51 0.36 50 1007.2
20260507153519 16 252 6.4 19.3 0.00 0.51 0.36 51 1007.2
20260507153014 16 270 6.4 19.3 0.00 0.51 0.36 51 1007.2
20260507152508 16 248 6.4 14.5 0.00 0.51 0.36 51 1007.3
20260507152003 15 321 6.4 11.3 0.00 0.51 0.36 51 1007.4
20260507151456 15 236 6.4 17.7 0.00 0.51 0.36 51 1007.4
20260507151212 15 264 6.4 17.7 0.00 0.51 0.36 53 1007.4
20260507150937 15 272 6.4 19.3 0.00 0.51 0.36 53 1007.4
20260507145950 15 355 6.4 19.3 0.00 0.51 0.36 54 1007.4
20260507145439 15 250 6.4 16.1 0.00 0.51 0.36 55 1007.6
20260507144941 14 62 6.4 16.1 0.00 0.51 0.36 55 1007.4
20260507144706 14 341 8.0 19.3 0.00 0.51 0.36 55 1007.6
20260507143941 14 306 6.4 19.3 0.00 0.51 0.36 56 1007.7
20260507143440 14 323 6.4 16.1 0.00 0.51 0.36 56 1007.6
20260507143156 14 317 6.4 16.1 0.00 0.51 0.36 56 1007.6
20260507142655 13 331 6.4 16.1 0.00 0.51 0.36 57 1007.7
20260507142201 13 313 4.8 9.7 0.00 0.51 0.36 57 1007.7
20260507141436 13 221 4.8 14.5 0.00 0.51 0.36 57 1007.7
20260507140929 13 302 4.8 14.5 0.00 0.51 0.36 57 1007.8
20260507140648 13 298 4.8 16.1 0.00 0.51 0.36 58 1007.8
20260507140146 12 16 6.4 16.1 0.00 0.51 0.36 58 1007.8
20260507135415 12 300 4.8 14.5 0.00 0.51 0.36 59 1007.8
20260507134916 12 227 4.8 14.5 0.00 0.51 0.36 59 1007.7
20260507134413 12 312 4.8 14.5 0.00 0.51 0.36 59 1007.7
20260507134406 11 300 4.8 14.5 0.00 0.51 0.36 60 1007.6
20260507133413 11 300 3.2 14.5 0.00 0.51 0.36 62 1007.7
20260507132913 11 231 4.8 14.5 0.00 0.51 0.36 61 1007.8
20260507132633 11 261 4.8 14.5 0.00 0.51 0.36 61 1007.9
20260507131914 11 346 4.8 11.3 0.00 0.51 0.36 61 1007.9
20260507131408 11 273 4.8 12.9 0.00 0.51 0.36 62 1007.9
20260507130902 10 238 4.8 12.9 0.00 0.51 0.36 63 1007.8
20260507130612 10 323 4.8 16.1 0.00 0.51 0.36 63 1007.9
20260507125849 10 346 6.4 16.1 0.00 0.51 0.36 61 1007.9
20260507125344 10 355 4.8 16.1 0.00 0.51 0.36 62 1008.0
20260507125101 10 323 3.2 8.0 0.00 0.51 0.36 63 1008.0
20260507124332 10 333 3.2 9.7 0.00 0.51 0.36 62 1008.0
20260507123828 10 298 3.2 9.7 0.00 0.51 0.36 62 1007.8
20260507123320 10 302 3.2 8.0 0.00 0.51 0.36 62 1007.8
20260507122816 10 277 3.2 8.0 0.00 0.51 0.36 63 1007.9
20260507122314 10 296 1.6 6.4 0.00 0.51 0.36 63 1008.0
20260507121813 10 339 0.0 4.8 0.00 0.51 0.36 62 1008.0
20260507121314 10 262 0.0 3.2 0.00 0.51 0.36 62 1008.0
20260507120811 10 265 1.6 4.8 0.00 0.51 0.36 62 1008.1
20260507120310 10 263 1.6 4.8 0.00 0.51 0.36 62 1007.8
20260507115810 10 274 0.0 4.8 0.00 0.51 0.36 61 1007.6
20260507115307 10 257 1.6 6.4 0.00 0.51 0.36 61 1007.7
20260507114800 10 279 1.6 6.4 0.00 0.51 0.36 61 1007.6
20260507114258 10 219 0.0 6.4 0.00 0.51 0.36 61 1007.7
20260507113801 10 246 0.0 4.8 0.00 0.51 0.36 61 1007.6
20260507113240 10 246 0.0 4.8 0.00 0.51 0.36 61 1007.7
20260507112736 10 253 0.0 1.6 0.00 0.51 0.36 61 1007.7
20260507112226 10 250 0.0 1.6 0.03 0.51 0.36 60 1007.5
20260507111718 10 250 0.0 3.2 0.03 0.51 0.36 59 1007.6
20260507111211 9 223 0.0 3.2 0.03 0.51 0.36 59 1007.4
20260507110709 9 284 0.0 1.6 0.03 0.51 0.36 59 1007.3
20260507110424 9 257 0.0 0.0 0.05 0.51 0.36 58 1007.4
20260507105651 9 257 0.0 0.0 0.05 0.51 0.36 58 1007.3
20260507105145 9 257 0.0 1.6 0.05 0.51 0.36 58 1007.3
20260507104639 9 265 0.0 1.6 0.08 0.51 0.36 57 1007.3
20260507104131 9 265 0.0 0.0 0.08 0.51 0.36 56 1006.8
20260507103843 9 265 0.0 0.0 0.08 0.51 0.36 56 1007.1
20260507103347 9 265 0.0 0.0 0.08 0.51 0.36 57 1007.1
20260507102621 9 265 0.0 0.0 0.10 0.51 0.36 57 1006.9
20260507102116 9 265 0.0 0.0 0.08 0.48 0.33 57 1007.2
20260507101610 9 265 0.0 0.0 0.08 0.48 0.33 57 1007.3
20260507101107 9 265 0.0 0.0 0.08 0.48 0.33 57 1007.4
20260507100608 9 265 0.0 0.0 0.08 0.48 0.33 57 1007.3
20260507100052 9 265 0.0 1.6 0.05 0.46 0.30 57 1007.1
20260507095545 9 303 0.0 4.8 0.08 0.46 0.30 57 1007.1
20260507095030 9 294 0.0 8.0 0.08 0.46 0.30 57 1007.0
20260507094523 9 296 0.0 8.0 0.08 0.43 0.28 57 1007.2
20260507094018 9 261 0.0 3.2 0.08 0.43 0.28 57 1007.1
20260507093513 9 288 1.6 8.0 0.08 0.43 0.28 57 1006.6
20260507093005 9 355 1.6 8.0 0.08 0.41 0.28 57 1006.5
20260507091956 9 269 3.2 8.0 0.08 0.41 0.25 57 1006.8
20260507091722 9 311 3.2 8.0 0.13 0.41 0.25 57 1006.6
20260507090951 9 257 3.2 16.1 0.13 0.41 0.25 57 1006.8
20260507090437 9 330 3.2 16.1 0.13 0.41 0.25 57 1006.6
20260507085931 9 334 3.2 9.7 0.15 0.41 0.25 57 1006.6
20260507085657 10 300 3.2 9.7 0.15 0.38 0.23 57 1006.6
20260507084917 10 338 3.2 8.0 0.15 0.38 0.23 57 1006.5
20260507084415 10 299 1.6 9.7 0.13 0.36 0.20 57 1006.7
20260507083905 10 330 3.2 9.7 0.13 0.36 0.20 57 1006.8
20260507083400 10 299 3.2 9.7 0.13 0.33 0.20 57 1007.0
20260507082853 10 311 1.6 6.4 0.15 0.33 0.18 57 1006.7
20260507082349 10 324 3.2 6.4 0.15 0.33 0.18 57 1006.7
20260507081851 10 283 3.2 8.0 0.15 0.30 0.18 57 1006.8
20260507081350 10 292 3.2 11.3 0.13 0.28 0.13 57 1006.7
20260507080850 10 279 3.2 11.3 0.13 0.28 0.13 57 1006.7
20260507080351 10 300 3.2 9.7 0.13 0.28 0.13 57 1006.5
20260507075850 11 5 1.6 8.0 0.10 0.25 0.10 57 1006.6
20260507075349 11 272 1.6 11.3 0.08 0.23 0.08 57 1007.1
20260507075109 11 268 3.2 11.3 0.08 0.23 0.08 57 1007.0
20260507074347 11 304 3.2 11.3 0.08 0.23 0.08 57 1006.9
20260507073841 11 255 1.6 8.0 0.08 0.23 0.08 57 1006.9
20260507073342 11 175 3.2 14.5 0.03 0.18 0.05 57 1006.3
20260507072829 11 259 6.4 17.7 0.03 0.18 0.03 57 1006.9
20260507072328 11 231 6.4 17.7 0.03 0.18 0.03 57 1006.7
20260507072052 11 302 4.8 16.1 0.00 0.15 0.00 57 1006.1
20260507071329 12 282 3.2 14.5 0.00 0.15 0.00 57 1006.0
20260507071304 12 274 3.2 9.7 0.00 0.15 0.00 58 1005.8
20260507070319 12 260 3.2 12.9 0.00 0.15 0.00 58 1005.6
20260507065820 12 338 6.4 20.9 0.00 0.15 0.00 58 1005.4
20260507065320 12 311 6.4 20.9 0.00 0.15 0.00 58 1005.6
20260507064816 12 275 4.8 16.1 0.00 0.15 0.00 59 1005.8
20260507064315 12 274 4.8 19.3 0.00 0.15 0.00 59 1005.7
20260507063815 12 291 4.8 19.3 0.00 0.15 0.00 59 1005.7
20260507063317 13 299 3.2 9.7 0.00 0.15 0.00 59 1005.9
20260507062814 13 233 3.2 14.5 0.00 0.15 0.00 59 1005.9
20260507062314 13 262 4.8 14.5 0.00 0.15 0.00 59 1005.9
20260507061817 13 342 3.2 14.5 0.00 0.15 0.00 59 1005.8
20260507061315 13 311 1.6 6.4 0.00 0.15 0.00 59 1005.9
20260507060813 13 298 1.6 6.4 0.00 0.15 0.00 59 1005.8
20260507060315 13 316 1.6 8.0 0.00 0.15 0.00 59 1005.8
20260507060300 13 241 3.2 9.7 0.00 0.15 0.00 59 1005.8
20260507055305 13 311 4.8 9.7 0.00 0.15 0.00 59 1005.9
20260507055025 13 274 3.2 9.7 0.00 0.15 0.00 59 1006.0
20260507054257 13 319 4.8 16.1 0.00 0.15 0.00 60 1006.1
20260507053757 13 326 4.8 16.1 0.00 0.15 0.00 60 1006.0
20260507053250 13 327 3.2 14.5 0.00 0.15 0.00 60 1006.1
20260507052749 14 315 3.2 9.7 0.00 0.15 0.00 60 1006.0
20260507052249 14 327 1.6 9.7 0.00 0.15 0.00 60 1006.3
20260507051751 14 341 0.0 4.8 0.00 0.15 0.00 60 1006.2
20260507051247 14 284 1.6 6.4 0.00 0.15 0.00 60 1006.2
20260507050704 14 305 1.6 6.4 0.00 0.15 0.00 60 1006.3
20260507050143 14 327 0.0 4.8 0.00 0.15 0.00 61 1006.0
20260507045643 14 269 1.6 6.4 0.00 0.15 0.00 61 1006.1
20260507045122 15 326 1.6 6.4 0.00 0.15 0.00 61 1006.0
20260507044616 15 290 1.6 8.0 0.03 0.15 0.00 61 1006.2
20260507044343 15 263 1.6 8.0 0.03 0.15 0.00 61 1006.0
20260507043615 15 301 0.0 4.8 0.03 0.15 0.00 61 1005.9
20260507043118 15 310 0.0 3.2 0.03 0.15 0.00 61 1005.9
20260507042837 15 269 0.0 1.6 0.03 0.15 0.00 61 1006.0
20260507042112 15 269 1.6 6.4 0.03 0.15 0.00 61 1005.9
20260507041610 15 238 1.6 6.4 0.03 0.15 0.00 61 1005.9
20260507041044 15 211 0.0 4.8 0.03 0.15 0.00 61 1005.8
20260507040543 15 225 0.0 4.8 0.03 0.15 0.00 61 1005.9
20260507040023 15 198 0.0 3.2 0.03 0.15 0.00 61 1005.9
20260507035516 15 280 1.6 6.4 0.03 0.15 0.15 61 1006.0
20260507035016 15 280 3.2 8.0 0.03 0.15 0.15 61 1005.9
20260507034732 15 230 1.6 8.0 0.00 0.13 0.13 61 1006.1
20260507033958 15 284 3.2 9.7 0.00 0.13 0.13 61 1006.0
20260507033710 15 129 3.2 12.9 0.00 0.13 0.13 61 1006.0
20260507033209 15 205 3.2 14.5 0.00 0.13 0.13 61 1005.9
20260507032439 15 250 3.2 16.1 0.00 0.13 0.13 61 1006.0
20260507032159 15 227 3.2 16.1 0.00 0.13 0.13 61 1005.9
20260507031429 15 209 1.6 16.1 0.00 0.13 0.13 61 1005.8
20260507030922 15 241 1.6 16.1 0.00 0.13 0.13 61 1005.7
20260507030417 15 159 1.6 11.3 0.00 0.13 0.13 61 1005.7
20260507025919 15 221 1.6 9.7 0.00 0.13 0.13 61 1005.8
20260507025417 15 215 1.6 9.7 0.00 0.13 0.13 61 1005.7
20260507024911 15 244 3.2 12.9 0.00 0.13 0.13 61 1005.7
20260507024354 15 165 4.8 22.5 0.00 0.13 0.13 61 1005.7
20260507023848 15 212 1.6 14.5 0.00 0.13 0.13 61 1005.7
20260507023342 15 170 1.6 6.4 0.00 0.13 0.13 61 1005.6
20260507022836 15 209 3.2 16.1 0.00 0.13 0.13 61 1005.7
20260507022330 15 355 3.2 16.1 0.00 0.13 0.13 61 1005.7
20260507021826 15 179 3.2 8.0 0.00 0.13 0.13 61 1005.7
20260507021315 15 220 1.6 8.0 0.00 0.13 0.13 61 1005.7
20260507020817 15 190 1.6 8.0 0.00 0.13 0.13 61 1005.7
20260507020314 15 164 3.2 11.3 0.00 0.13 0.13 61 1005.7
20260507015814 15 246 1.6 11.3 0.00 0.13 0.13 62 1005.9
20260507015259 15 161 1.6 9.7 0.00 0.13 0.13 62 1005.7
20260507014759 15 286 1.6 8.0 0.00 0.13 0.13 62 1005.6
20260507014237 15 248 1.6 8.0 0.00 0.13 0.13 62 1005.8
20260507013732 15 244 1.6 4.8 0.00 0.13 0.13 62 1005.8
20260507013226 15 246 1.6 8.0 0.00 0.13 0.13 62 1005.8
20260507012720 15 196 3.2 11.3 0.00 0.13 0.13 62 1005.6
20260507012215 14 204 1.6 11.3 0.00 0.13 0.13 62 1005.9
20260507011716 15 173 1.6 8.0 0.00 0.13 0.13 62 1005.9
20260507011214 14 212 3.2 16.1 0.00 0.13 0.13 62 1006.0
20260507010930 14 194 3.2 16.1 0.00 0.13 0.13 62 1006.0
20260507010209 14 223 1.6 11.3 0.00 0.13 0.13 62 1006.0
20260507005704 14 211 1.6 14.5 0.00 0.13 0.13 62 1006.1
20260507005204 14 177 1.6 14.5 0.00 0.13 0.13 62 1006.1
20260507004656 14 195 1.6 16.1 0.00 0.13 0.13 62 1006.1
20260507004154 14 134 1.6 16.1 0.00 0.13 0.13 62 1006.0
20260507003654 14 210 1.6 9.7 0.00 0.13 0.13 62 1006.1
20260507003152 14 196 1.6 8.0 0.00 0.13 0.13 62 1006.1
20260507002652 14 144 3.2 11.3 0.00 0.13 0.13 62 1006.1
20260507002152 14 219 4.8 14.5 0.00 0.13 0.13 62 1006.0
20260507001651 14 246 4.8 16.1 0.00 0.13 0.13 62 1005.8
20260507001150 14 238 3.2 16.1 0.00 0.13 0.13 63 1005.9
20260507000650 14 237 3.2 14.5 0.00 0.13 0.13 63 1005.9
20260507000147 14 78 1.6 14.5 0.00 0.13 0.13 63 1006.0
20260506235648 14 238 1.6 11.3 0.00 0.13 0.13 63 1005.9
20260506235410 14 133 3.2 14.5 0.00 0.13 0.13 63 1005.9
20260506234644 14 138 1.6 14.5 0.00 0.13 0.13 63 1005.7
20260506234402 14 243 3.2 14.5 0.00 0.13 0.13 63 1005.9
20260506233638 14 202 3.2 14.5 0.00 0.13 0.13 63 1005.8
20260506233137 14 314 3.2 16.1 0.00 0.13 0.13 63 1005.7
20260506232635 15 194 3.2 16.1 0.00 0.13 0.13 63 1005.6
20260506232127 15 173 1.6 11.3 0.00 0.13 0.13 63 1005.7
20260506231847 15 166 3.2 9.7 0.00 0.13 0.13 64 1005.8
20260506231126 15 171 1.6 11.3 0.00 0.13 0.13 64 1005.7
20260506230628 15 279 3.2 11.3 0.00 0.13 0.13 64 1005.9
20260506230127 15 194 3.2 11.3 0.00 0.13 0.13 64 1005.9
20260506225628 15 128 3.2 11.3 0.00 0.13 0.13 64 1005.9
20260506225116 15 200 3.2 9.7 0.00 0.13 0.13 64 1006.0
20260506224607 15 195 1.6 11.3 0.00 0.13 0.13 65 1006.0
20260506224108 15 117 3.2 11.3 0.03 0.13 0.13 65 1005.9
20260506223555 15 205 3.2 14.5 0.03 0.13 0.13 65 1005.8
20260506223047 15 178 3.2 14.5 0.03 0.13 0.13 66 1005.8
20260506222541 15 200 3.2 11.3 0.03 0.13 0.13 66 1005.8
20260506222035 15 185 1.6 14.5 0.03 0.13 0.13 66 1005.8
20260506221533 15 229 1.6 14.5 0.03 0.13 0.13 67 1005.9
20260506221514 15 117 3.2 14.5 0.05 0.13 0.13 67 1006.0
20260506220741 15 263 3.2 16.1 0.05 0.13 0.13 67 1006.1
20260506220011 15 152 4.8 16.1 0.05 0.13 0.13 67 1006.3
20260506215512 15 204 3.2 16.1 0.05 0.13 0.13 67 1006.3
20260506215011 15 228 3.2 8.0 0.05 0.13 0.13 67 1006.3
20260506214453 15 90 3.2 14.5 0.05 0.13 0.13 67 1006.3
20260506213947 15 195 1.6 14.5 0.03 0.10 0.10 67 1006.2
20260506213703 15 203 3.2 14.5 0.03 0.10 0.10 66 1006.3
20260506212939 15 137 3.2 16.1 0.05 0.10 0.10 66 1006.4